CYGFM06 (41889 NORAD) Tracking and Keplerian Element Data

This shows tracking and keplerian element data for the satellite.

Feedback or suggestion? Click here.




ElementValue
Catalog41889
NameCYGFM06
Epoch Orbit26464
Epoch Day268.6877798
Epoch Year2021
RAAN40.4262
Inclination34.9592
Eccentricity0.0014385
Argument of Perigee252.8946
Mean Anonmoly107.019
Mean Motion15.15662531
Decay Rate1.235E-05
L11 41889U 16078F 21268.68777980 .00001235 00000-0 64985-4 0 9990
L22 41889 34.9592 40.4262 0014385 252.8946 107.0190 15.15662531264644

Live tracking and technical data element details for CYGFM06 (NORAD 41889). CYGFM06 can be tracked NOW for your location showing map with azimuth and elevation plus other details from your city location.

Track the satellite on the map from your city or location and see movement details for azimuth, elevation, latitude, longitude, range, height, and movement on the map or in text.







IsCatalogInMostPopularTable: catalog: 41889, numindb: 523
Update: records affected: 1



GetName: 41889 CYGFM06

Hit Count: updated at: Mon, 27 Sep 2021 01:53:52 GMT